ICT,Max TemperatureF,Mean TemperatureF,Min TemperatureF,Max Dew PointF,MeanDew PointF,Min DewpointF,Max Humidity, Mean Humidity, Min Humidity, Max Sea Level PressureIn, Mean Sea Level PressureIn, Min Sea Level PressureIn, Max VisibilityMiles, Mean VisibilityMiles, Min VisibilityMiles, Max Wind SpeedMPH, Mean Wind SpeedMPH, Max Gust SpeedMPH,PrecipitationIn, CloudCover, Events, WindDirDegrees
2013-9-1,88,82,77,79,77,75,94,82,68,29.83,29.79,29.71,5,4,1,5,3,,0.00,6,Thunderstorm,59
2013-9-2,86,82,78,79,78,77,95,84,74,29.89,29.83,29.74,4,3,1,5,3,,0.00,6,Rain-Thunderstorm,28
2013-9-3,92,85,78,80,78,77,100,78,57,29.86,29.76,29.65,4,3,1,5,3,,0.00,6,Thunderstorm,180
2013-9-4,88,83,78,79,77,75,94,80,66,29.80,29.72,29.65,6,4,1,2,2,,0.00,5,,227
2013-9-5,80,78,75,77,77,75,97,92,89,29.77,29.73,29.68,4,2,2,5,3,,0.67,6,Rain,89
2013-9-6,98,86,75,77,75,73,100,79,50,29.86,29.79,29.71,5,3,2,7,3,,0.00,4,Rain,108
2013-9-7,88,82,77,79,76,75,94,82,65,29.89,29.82,29.74,6,4,1,9,3,,0.12,4,Rain,28
2013-9-8,84,80,75,77,75,73,100,82,68,29.89,29.83,29.77,6,4,2,7,3,,0.12,6,,115
2013-9-9,91,83,75,76,75,73,100,74,59,29.89,29.81,29.72,6,4,2,5,4,,0.08,4,Rain,115
2013-9-10,91,83,75,79,76,73,94,76,62,29.83,29.74,29.64,9,5,1,5,3,,0.00,2,,132
2013-9-11,91,84,78,79,77,73,94,76,57,29.80,29.72,29.65,6,4,2,12,3,,0.00,4,,107
2013-9-12,88,82,77,78,76,75,94,82,70,29.83,29.76,29.71,4,3,1,7,4,,0.04,4,Rain,86
2013-9-13,85,80,75,79,76,75,94,86,71,29.89,29.79,29.71,6,4,2,2,2,,1.34,5,Rain,79
2013-9-14,86,82,77,77,77,75,100,85,74,29.80,29.73,29.65,6,4,2,9,3,,0.08,5,Rain,78
2013-9-15,82,80,77,77,76,75,94,88,79,29.74,29.68,29.62,4,3,2,5,3,,0.20,5,Rain,133
2013-9-16,90,84,78,81,77,75,94,80,66,29.77,29.68,29.59,6,5,1,7,3,,0.00,4,Thunderstorm,196
2013-9-17,91,84,77,79,78,76,96,80,63,29.74,29.67,29.59,6,4,2,9,3,,0.00,5,,83
2013-9-18,90,83,76,79,77,72,92,81,62,29.77,29.68,29.58,6,4,2,5,3,,0.08,4,Rain,149
2013-9-19,87,82,78,82,76,73,100,81,70,29.62,29.58,29.50,5,3,1,9,4,,0.00,6,Rain,323
2013-9-20,85,82,78,79,76,72,94,82,70,29.65,29.62,29.57,4,3,1,7,3,,0.12,6,Rain,104
2013-9-21,89,83,77,75,75,73,94,79,62,29.71,29.65,29.56,4,3,2,7,4,,0.04,4,,103
2013-9-22,91,84,77,81,77,75,100,77,61,29.65,29.57,29.49,6,5,1,5,3,,0.00,1,,204
2013-9-23,93,86,78,79,77,71,96,73,59,29.62,29.56,29.47,6,4,2,12,4,,0.00,3,Thunderstorm,22
2013-9-24,91,84,76,77,74,71,89,76,62,29.74,29.65,29.59,4,3,2,12,4,,0.03,5,Rain-Thunderstorm,104
2013-9-25,90,84,77,79,77,75,94,76,62,29.80,29.72,29.65,6,5,1,2,2,,0.00,2,Rain,174
2013-9-26,87,82,77,79,76,75,94,82,69,29.86,29.78,29.71,6,4,2,9,3,,0.00,5,Rain,55
2013-9-27,89,83,77,76,74,72,91,72,53,29.86,29.78,29.71,6,4,2,7,4,,0.47,5,Rain,93
2013-9-28,91,83,75,79,75,73,94,74,53,29.83,29.74,29.67,6,4,1,4,2,,0.00,3,,78
2013-9-29,90,82,74,77,75,73,95,76,59,29.77,29.69,29.57,7,4,2,5,3,,0.43,3,Rain,7
2013-9-30,90,82,73,74,72,70,88,68,49,29.74,29.66,29.60,4,3,1,5,3,,0.08,5,,319